Weather History for Patuxent River, MD

Change the Weather History Date:

Monday, July 8, 2013

  Actual Average Record
Temperature  
Mean Temperature 80 °F -  
Max Temperature 87 °F 87 °F 100 °F (2012)
Min Temperature 73 °F 68 °F 59 °F (1984)
Cooling Degree Days 14    
Growing Degree Days 30 (Base 50)    
Moisture  
Dew Point 70 °F    
Average Humidity 75    
Maximum Humidity 89    
Minimum Humidity 53    
Precipitation  
Precipitation 0.02 in - - ()
Sea Level Pressure  
Sea Level Pressure 30.09 in    
Wind  
Wind Speed 5 mph (SW)    
Max Wind Speed 12 mph    
Max Gust Speed 16 mph    
Visibility 10 miles    
Events Rain    
Averages and records for this station are not official NWS values.
T = Trace of Precipitation, MM = Missing Value Source: NWS Daily Summary

Daily Weather History Graph

Daily Weather History Graph

Search for Another Location

Airport:

Trip Planner

Search our weather history database for the weather conditions in past years. The results will help you decide how hot, cold, wet, or windy it might be!

Date:

Astronomy

Jul. 08, 2013 Rise Set
Actual Time 5:49 AM EDT 8:31 PM EDT
Civil Twilight 5:18 AM EDT 9:02 PM EDT
Nautical Twilight 4:39 AM EDT 9:41 PM EDT
Astronomical Twilight 3:55 AM EDT 10:25 PM EDT
Moon 6:15 AM EDT (7/8) 8:34 PM EDT (7/8)
Length of Visible Light 15h 43m
Length of Day
14h 41m
New Moon, 0% of the Moon is Illuminated
Jul 8
New Moon
Jul 15
First Quarter
Jul 22
Full
Jul 29
Last Quarter
Aug 6
New

Hourly Weather History & Observations

Time (EDT) Temp. Heat Index Dew Point Humidity Pressure Visibility Wind Dir Wind Speed Gust Speed Precip Events Conditions
12:52 AM 75.9 °F - 69.1 °F 79% 30.07 in 10.0 mi Calm Calm - N/A   Mostly Cloudy
1:52 AM 75.9 °F - 70.0 °F 82% 30.06 in 10.0 mi SSW 4.6 mph - N/A   Scattered Clouds
2:52 AM 75.9 °F - 70.0 °F 82% 30.06 in 10.0 mi SSW 4.6 mph - N/A   Clear
3:52 AM 75.0 °F - 70.0 °F 84% 30.06 in 10.0 mi SW 4.6 mph - N/A   Clear
4:52 AM 75.9 °F - 70.0 °F 82% 30.07 in 10.0 mi West 5.8 mph - N/A   Scattered Clouds
5:52 AM 75.9 °F - 69.1 °F 79% 30.08 in 10.0 mi West 5.8 mph - N/A   Mostly Cloudy
6:52 AM 75.0 °F - 69.1 °F 82% 30.10 in 10.0 mi WSW 4.6 mph - N/A   Mostly Cloudy
7:34 AM 73.4 °F - 69.8 °F 88% 30.11 in 10.0 mi SW 5.8 mph - 0.00 in Rain Light Rain
7:52 AM 73.9 °F - 70.0 °F 87% 30.13 in 7.0 mi SW 8.1 mph - 0.00 in Rain Light Rain
8:42 AM 75.2 °F - 71.6 °F 89% 30.11 in 10.0 mi SW 5.8 mph - 0.02 in   Mostly Cloudy
8:52 AM 75.0 °F - 71.1 °F 87% 30.12 in 10.0 mi SW 5.8 mph - 0.02 in   Mostly Cloudy
9:52 AM 75.9 °F - 70.0 °F 82% 30.12 in 10.0 mi WSW 5.8 mph - N/A   Mostly Cloudy
10:52 AM 75.9 °F - 70.0 °F 82% 30.13 in 10.0 mi SW 5.8 mph - N/A   Mostly Cloudy
11:52 AM 80.1 °F 83.2 °F 70.0 °F 71% 30.12 in 10.0 mi WSW 11.5 mph - N/A   Mostly Cloudy
12:52 PM 82.9 °F 86.5 °F 69.1 °F 63% 30.11 in 10.0 mi WSW 6.9 mph - N/A   Scattered Clouds
1:52 PM 84.9 °F 88.8 °F 69.1 °F 59% 30.09 in 10.0 mi SW 8.1 mph 16.1 mph N/A   Mostly Cloudy
2:52 PM 84.9 °F 88.2 °F 68.0 °F 57% 30.09 in 10.0 mi WSW 8.1 mph - N/A   Mostly Cloudy
3:52 PM 84.9 °F 88.2 °F 68.0 °F 57% 30.08 in 10.0 mi West 10.4 mph - N/A   Mostly Cloudy
4:52 PM 86.0 °F 88.8 °F 66.9 °F 53% 30.07 in 10.0 mi WSW 9.2 mph - N/A   Mostly Cloudy
5:52 PM 84.0 °F 86.3 °F 66.0 °F 55% 30.05 in 10.0 mi SW 8.1 mph - N/A   Mostly Cloudy
6:52 PM 82.0 °F 85.9 °F 70.0 °F 67% 30.06 in 10.0 mi SSW 4.6 mph - N/A   Mostly Cloudy
7:52 PM 81.0 °F 84.4 °F 70.0 °F 69% 30.07 in 10.0 mi SSW 3.5 mph - N/A   Mostly Cloudy
8:52 PM 78.1 °F - 70.0 °F 76% 30.09 in 10.0 mi SSW 4.6 mph - N/A   Mostly Cloudy
9:52 PM 77.0 °F - 70.0 °F 79% 30.11 in 10.0 mi SSW 3.5 mph - N/A   Mostly Cloudy
10:52 PM 77.0 °F - 70.0 °F 79% 30.11 in 10.0 mi South 4.6 mph - N/A   Mostly Cloudy
11:52 PM 75.9 °F - 71.1 °F 85% 30.10 in 10.0 mi SSW 3.5 mph - N/A   Clear